TimeMDT,TemperatureF,Dew PointF,Humidity,Sea Level PressureIn,VisibilityMPH,Wind Direction,Wind SpeedMPH,Gust SpeedMPH,PrecipitationIn,Events,Conditions,WindDirDegrees,DateUTC
12:53 AM,45.0,30.9,58,29.85,10.0,SE,12.7,-,N/A,,Clear,130,2013-10-03 06:53:00
1:53 AM,44.1,30.9,60,29.86,10.0,SE,12.7,-,N/A,,Clear,130,2013-10-03 07:53:00
2:53 AM,44.1,32.0,63,29.84,10.0,East,12.7,-,N/A,,Mostly Cloudy,80,2013-10-03 08:53:00
3:53 AM,44.1,32.0,63,29.86,10.0,ENE,5.8,-,N/A,,Mostly Cloudy,70,2013-10-03 09:53:00
4:53 AM,43.0,32.0,65,29.88,10.0,East,9.2,-,N/A,,Overcast,100,2013-10-03 10:53:00
5:53 AM,44.1,33.1,65,29.87,10.0,ESE,4.6,-,N/A,,Overcast,120,2013-10-03 11:53:00
6:53 AM,43.0,33.1,68,29.86,10.0,ESE,4.6,-,N/A,,Overcast,120,2013-10-03 12:53:00
7:53 AM,44.1,34.0,68,29.87,10.0,East,10.4,-,N/A,,Overcast,100,2013-10-03 13:53:00
8:53 AM,46.0,34.0,63,29.86,10.0,SE,15.0,21.9,N/A,,Overcast,140,2013-10-03 14:53:00
9:53 AM,48.0,35.1,61,29.85,10.0,SE,11.5,-,0.00,,Mostly Cloudy,140,2013-10-03 15:53:00
10:53 AM,50.0,35.1,57,29.83,10.0,ESE,12.7,-,N/A,,Mostly Cloudy,110,2013-10-03 16:53:00
11:53 AM,55.0,37.0,51,29.79,10.0,ESE,11.5,19.6,N/A,,Partly Cloudy,110,2013-10-03 17:53:00
12:53 PM,55.9,37.9,51,29.78,10.0,SE,17.3,21.9,N/A,,Overcast,130,2013-10-03 18:53:00
1:53 PM,53.1,37.9,57,29.81,10.0,East,13.8,-,N/A,,Overcast,100,2013-10-03 19:53:00
2:43 PM,48.2,39.2,71,29.87,10.0,East,20.7,-,N/A,,Overcast,90,2013-10-03 20:43:00
2:53 PM,48.9,39.0,69,29.82,10.0,East,16.1,25.3,N/A,,Overcast,100,2013-10-03 20:53:00
3:14 PM,48.2,39.2,71,29.87,10.0,East,17.3,-,N/A,,Overcast,100,2013-10-03 21:14:00
3:53 PM,46.0,41.0,83,29.84,10.0,East,23.0,29.9,0.00,Rain,Light Rain,90,2013-10-03 21:53:00
4:04 PM,46.4,39.2,76,29.88,10.0,East,19.6,26.5,0.00,,Overcast,90,2013-10-03 22:04:00
4:26 PM,44.6,39.2,81,29.87,10.0,East,19.6,25.3,0.00,,Overcast,90,2013-10-03 22:26:00
4:53 PM,43.0,39.0,86,29.86,10.0,East,15.0,26.5,0.00,,Overcast,90,2013-10-03 22:53:00
5:53 PM,42.1,39.9,92,29.87,6.0,East,18.4,-,N/A,Rain,Light Rain,90,2013-10-03 23:53:00
6:00 PM,42.8,39.2,87,29.89,7.0,East,19.6,-,N/A,Rain,Rain,80,2013-10-04 00:00:00
6:14 PM,42.8,39.2,87,29.90,3.0,East,17.3,-,N/A,Rain,Rain,100,2013-10-04 00:14:00
6:29 PM,42.8,39.2,87,29.89,5.0,East,20.7,27.6,N/A,Rain,Rain,80,2013-10-04 00:29:00
6:38 PM,42.8,39.2,87,29.90,4.0,East,17.3,24.2,N/A,Rain,Rain,90,2013-10-04 00:38:00
6:53 PM,42.1,39.9,92,29.88,10.0,East,13.8,24.2,N/A,Rain,Light Rain,80,2013-10-04 00:53:00
7:16 PM,42.8,39.2,87,29.92,4.0,East,12.7,-,N/A,Rain,Light Rain,100,2013-10-04 01:16:00
7:39 PM,41.0,39.2,93,29.92,3.0,East,12.7,-,N/A,Rain,Rain,90,2013-10-04 01:39:00
7:53 PM,41.0,39.9,96,29.91,5.0,East,11.5,-,N/A,Rain,Rain,80,2013-10-04 01:53:00
8:11 PM,41.0,39.2,93,29.93,9.0,East,10.4,-,N/A,Rain,Light Rain,80,2013-10-04 02:11:00
8:53 PM,39.9,37.9,93,29.95,5.0,North,9.2,-,N/A,Rain,Rain,10,2013-10-04 02:53:00
9:14 PM,39.2,37.4,93,29.98,4.0,NNE,10.4,-,N/A,Rain,Rain,20,2013-10-04 03:14:00
9:41 PM,35.6,33.8,93,29.99,5.0,NNE,12.7,-,N/A,Rain,Rain,20,2013-10-04 03:41:00
10:53 PM,34.0,33.1,96,29.99,6.0,NNE,12.7,-,N/A,Snow,Light Snow,20,2013-10-04 04:53:00
11:23 PM,33.8,33.8,100,29.99,9.0,North,12.7,-,N/A,,Overcast,10,2013-10-04 05:23:00
11:53 PM,34.0,33.1,96,29.96,10.0,North,10.4,-,N/A,,Overcast,360,2013-10-04 05:53:00